RH
20 20 14 32 38 52 49 34 30 26 22 20 22 25 26 21 28 29 31 23 27 24 27 35 52 49 51 48 45 48 57 59 57 62 70 76 70 59 59 59 59 57 56 53 55 62 67 75 84
21 21 18 36 46 43 27 37 32 25 18 16 29 32 35 34 38 34 34 32 25 22 22 25 39 48 53 51 49 56 64 57 51 54 66 74 71 69 67 65 64 61 56 54 59 68 73 80 83
26 18 24 49 64 38 29 29 25 20 17 16 18 25 27 35 34 30 28 22 19 20 22 22 28 48 55 53 50 57 60 56 51 54 63 73 75 76 70 70 70 65 72 73 68 69 77 76 80
26 24 32 50 56 42 27 21 22 22 14 15 17 28 31 36 34 29 22 20 21 23 26 29 29 41 58 61 55 52 57 54 53 60 71 80 76 76 75 74 71 61 66 70 71 80 76 83 82
22 29 48 59 51 39 33 25 22 21 18 15 16 27 37 37 30 30 21 23 24 27 26 27 29 46 62 68 64 57 54 57 57 60 64 69 79 76 73 72 52 61 73 68 68 77 71 74 84
30 36 58 56 44 30 26 21 19 18 18 16 20 21 29 35 33 28 26 28 31 33 32 33 34 53 72 75 74 71 59 58 61 60 66 77 56 84 73 52 43 50 66 74 74 76 75 78 83
31 47 53 46 38 33 24 17 20 19 19 18 17 38 33 33 37 33 29 31 35 39 44 46 47 63 76 84 84 84 82 78 74 82 93 84 74 61 66 74 78 83 80 77 75 66 78 79 77
27 40 44 42 36 32 19 18 16 16 17 18 38 51 43 26 36 38 34 38 44 48 46 44 50 81 85 78 81 93 93 88 91 94 80 99 86 80 78 83 88 82 76 70 63 74 80 76 78
35 44 56 39 35 26 21 20 18 17 17 16 16 25 36 37 39 43 39 45 50 48 43 42 56 84 80 88 83 87 92 92 94 84 68 77 87 93 81 93 92 83 76 63 70 81 84 77 75
47 61 37 36 28 26 22 24 23 19 20 18 15 20 27 51 45 38 38 45 48 48 42 44 62 69 78 79 78 79 88 93 90 88 66 74 79 87 90 81 88 83 81 74 78 83 80 78 75
50 48 35 32 26 26 27 25 22 21 25 19 16 16 15 19 64 42 43 47 43 46 41 50 66 73 75 76 77 79 80 86 98 85 81 73 76 84 92 80 92 86 87 83 86 86 83 78 74
54 44 38 32 29 31 31 27 26 22 22 19 18 17 16 20 45 49 38 44 48 46 46 39 63 73 76 76 82 82 82 88 91 92 80 79 86 91 77 84 78 86 85 84 87 86 86 78 76
50 46 38 35 33 31 30 32 29 25 23 22 20 15 13 23 30 48 38 50 48 47 47 39 56 74 76 76 89 86 85 92 96 96 95 99 95 86 88 84 88 83 83 89 89 85 78 73 77
30 34 35 34 35 34 34 33 29 26 24 20 17 15 13 20 29 43 44 42 46 44 50 42 55 68 78 80 93 92 91 97 97 99 98 97 91 87 93 88 82 79 84 87 88 82 76 72 78
35 43 38 37 35 39 31 34 30 21 19 17 15 14 13 22 41 42 30 30 38 46 48 51 59 70 76 86 91 93 96 99 99 100 100 98 87 85 87 87 87 84 86 87 84 81 74 74 78
39 41 51 34 33 29 25 38 27 20 18 17 15 14 14 26 32 38 36 36 38 51 48 56 58 71 83 88 87 89 97 99 100 99 100 100 94 93 90 85 86 87 86 92 83 80 77 79 74
48 56 52 42 28 26 27 33 22 18 20 19 18 16 18 29 42 39 36 41 42 50 50 58 58 69 86 86 87 84 98 99 99 100 100 100 99 100 96 93 82 86 75 97 88 82 78 76 77
56 57 54 49 31 30 32 36 32 24 23 24 22 21 17 20 31 32 38 42 50 54 57 64 63 66 92 86 82 82 97 99 100 99 97 100 100 95 99 94 82 81 61 92 92 82 77 76 74
42 50 54 44 35 38 40 39 33 28 27 28 23 23 19 17 15 30 41 48 52 59 61 64 62 59 94 82 87 86 99 100 99 99 99 100 100 96 94 89 86 64 49 59 70 78 76 78 80
40 41 41 38 36 38 42 41 35 30 29 25 23 21 19 18 20 31 40 48 51 57 59 63 61 54 95 99 91 85 82 100 98 100 99 98 97 99 96 86 86 59 45 55 61 65 73 78 80
54 54 51 41 36 35 39 39 34 27 29 23 20 18 17 16 20 31 36 42 48 59 57 60 60 55 86 99 94 89 90 100 100 99 100 100 91 84 80 87 88 56 38 36 50 63 66 73 80
72 47 44 40 45 54 36 58 40 36 33 29 24 20 19 22 26 30 39 42 45 50 59 59 61 59 71 100 85 83 84 98 98 99 100 100 100 99 95 90 86 80 43 35 33 51 52 73 76
69 53 64 58 66 58 53 57 42 38 37 32 28 21 18 19 23 28 28 31 43 49 56 60 66 62 56 100 96 91 92 92 96 90 96 100 100 100 100 97 84 99 80 46 26 25 46 76 73
54 68 61 62 70 88 58 56 51 44 36 30 23 20 18 17 21 36 48 51 49 49 57 62 64 63 51 79 99 98 94 93 90 94 97 100 100 100 100 98 100 93 88 60 32 34 42 73 68
66 79 91 89 88 86 50 58 43 30 29 37 42 34 25 18 18 22 48 55 51 47 56 60 61 60 46 61 98 99 99 99 98 99 98 99 100 99 99 99 97 92 95 80 48 62 55 53 67
82 70 92 89 88 78 56 64 47 43 43 52 58 57 35 24 20 22 29 42 44 52 54 56 59 61 51 55 91 100 100 100 100 96 96 95 96 98 100 100 97 94 93 93 82 56 72 73 72
75 96 82 100 100 98 69 55 50 64 65 59 65 70 66 35 24 27 40 52 52 55 55 58 63 66 58 53 70 91 98 100 99 99 99 99 99 99 95 100 100 97 94 99 93 87 79 82 82
75 83 99 100 98 89 69 76 95 88 77 69 75 79 80 65 50 60 77 84 89 85 72 68 64 65 61 60 59 69 89 99 100 100 97 96 99 99 99 100 100 100 100 99 97 97 87 90 87
83 88 98 96 86 98 95 95 78 81 72 76 77 88 96 91 82 85 99 100 100 100 98 85 72 69 72 71 69 71 76 85 94 98 99 99 100 100 99 98 98 98 96 95 100 100 97 90 76
77 92 89 100 99 97 100 97 76 68 65 67 77 87 98 100 100 100 100 100 99 100 99 90 76 76 78 80 82 81 80 79 79 88 88 91 98 100 100 100 100 96 95 89 86 89 92 93 96
Wind_Speed
10 9 8 5 3 5 4 7 3 5 7 2 2 5 8 5 6 4 22 17 13 11 10 12 16 19 22 23 23 23 23 24 24 25 27 28 27 28 27 26 26 26 24 24 23 22 21 21 22
11 11 9 4 4 2 5 4 6 5 6 13 2 5 2 2 7 11 19 15 12 9 8 9 13 18 23 24 24 24 24 24 24 25 27 30 29 28 26 26 26 25 24 23 23 23 22 24 24
13 13 6 4 4 6 6 6 5 3 12 3 3 2 4 3 9 19 12 13 12 11 10 9 11 17 23 25 25 24 24 23 23 26 27 31 31 29 29 27 25 23 21 21 23 25 26 24 24
13 7 2 4 7 7 6 5 4 8 10 6 4 4 6 7 8 15 14 13 12 11 10 10 9 14 23 26 26 26 26 24 25 25 30 33 32 32 30 28 25 22 21 21 23 26 26 23 24
14 4 2 2 5 6 5 13 4 7 4 12 9 5 5 10 11 16 16 14 12 11 9 8 8 13 19 26 27 27 26 26 26 27 29 31 31 31 30 29 26 24 24 23 24 25 25 22 24
5 3 2 6 4 6 7 13 4 6 10 21 7 13 9 12 14 16 16 13 12 9 9 9 11 15 17 22 27 26 26 27 26 28 31 32 28 27 27 28 26 23 24 27 27 26 25 24 24
6 4 5 5 4 5 9 10 6 5 6 8 9 7 7 14 18 17 15 13 12 11 10 8 12 17 16 16 20 23 24 23 24 26 26 29 25 26 21 20 24 27 28 27 27 28 28 25 24
5 4 4 6 5 7 5 2 2 3 5 11 3 4 6 19 22 19 16 15 14 13 10 8 10 17 18 17 18 22 25 27 26 24 25 21 24 25 24 25 27 27 27 27 29 30 28 26 23
6 1 4 7 8 6 2 2 2 7 7 22 8 14 6 9 26 24 22 20 19 15 12 9 9 17 17 14 15 19 22 24 25 28 32 26 32 23 27 26 24 27 26 28 31 30 28 25 22
5 5 7 6 6 4 4 5 11 7 12 18 18 10 13 9 32 29 27 26 21 17 12 10 10 13 16 16 18 18 18 20 20 35 29 26 24 26 30 28 23 25 24 31 30 29 27 24 21
5 7 3 4 12 9 4 9 6 5 8 14 13 25 24 15 31 31 28 25 19 15 13 10 12 14 16 19 20 23 22 23 27 33 31 40 32 28 27 27 26 25 25 33 33 31 27 24 21
5 7 11 8 18 10 7 13 8 14 21 31 28 30 29 22 33 34 29 26 22 18 13 12 12 15 16 17 21 22 24 25 23 24 34 36 37 34 31 33 30 27 30 37 37 33 28 23 22
7 4 9 14 18 18 21 11 17 13 32 32 29 26 28 20 30 38 29 24 21 20 16 12 12 15 15 15 18 21 23 22 21 25 30 40 36 36 29 36 31 30 33 40 37 31 27 24 23
7 9 17 20 24 21 16 19 9 23 31 28 26 27 27 24 31 38 32 29 26 22 17 13 13 13 14 13 16 19 19 20 20 25 32 36 36 32 40 36 33 32 38 40 36 32 28 25 25
9 8 8 7 7 8 13 10 10 30 25 27 25 27 25 25 32 39 32 30 27 22 16 15 14 12 11 12 15 17 19 20 22 30 33 36 36 34 34 34 35 34 41 40 35 31 29 27 26
4 3 5 4 8 8 13 21 11 22 22 26 26 27 27 30 35 38 35 31 26 22 19 15 14 13 13 16 14 15 18 20 21 24 30 36 37 36 36 37 37 35 42 41 37 33 30 29 24
2 8 7 5 6 6 8 9 4 8 11 14 18 22 27 33 38 40 37 33 27 23 18 17 15 15 16 16 17 16 16 17 18 22 26 30 35 38 37 41 38 34 40 41 38 34 32 29 26
4 5 6 4 3 1 5 10 7 10 14 18 23 25 25 29 38 42 39 35 28 25 20 18 15 16 17 17 15 16 15 17 17 16 21 27 37 36 40 35 36 34 40 42 40 38 34 31 25
4 7 11 4 7 5 8 9 11 8 14 15 24 23 28 27 27 41 42 34 30 27 24 20 18 17 19 20 20 19 15 16 15 11 11 25 43 43 34 34 36 36 42 44 43 40 36 29 26
8 9 11 6 9 10 9 11 11 10 9 21 23 26 28 27 29 35 40 36 33 32 27 23 19 17 20 20 19 19 18 17 14 14 16 20 20 27 25 30 33 36 37 40 42 42 39 33 29
9 11 7 9 10 10 5 16 15 11 10 19 19 26 24 26 32 36 36 36 37 37 31 25 20 17 19 21 19 18 18 17 15 16 22 24 28 28 32 31 33 33 37 40 43 46 46 42 33
8 7 11 9 7 5 4 7 7 8 9 7 16 22 21 23 28 32 34 36 41 38 33 26 21 18 18 23 20 19 18 20 20 20 21 25 31 27 33 35 37 31 34 35 40 43 43 41 37
6 3 6 5 5 3 2 5 4 6 7 8 8 21 18 12 16 28 34 37 41 38 33 28 22 18 19 22 22 20 21 18 18 19 21 27 28 30 27 33 36 36 36 37 37 39 45 39 38
5 4 6 4 2 6 7 7 4 5 7 5 4 11 13 13 13 21 28 34 38 37 33 30 25 19 18 21 23 24 22 23 22 21 22 25 26 30 31 28 38 33 34 37 37 35 40 42 37
2 2 2 3 3 4 4 7 10 9 9 5 10 18 19 13 13 24 32 36 40 39 35 32 26 20 18 19 21 23 23 24 23 23 25 23 24 28 33 35 34 32 31 36 37 39 36 39 40
6 6 3 3 3 2 1 5 3 5 6 12 13 22 14 14 17 27 32 37 41 39 36 32 27 21 17 16 17 19 19 19 18 16 17 20 22 28 24 37 36 34 33 35 41 39 40 39 38
1 7 4 4 3 2 3 6 4 15 16 17 19 24 22 12 17 28 33 35 39 39 36 32 26 20 16 14 15 16 16 17 14 12 12 13 17 19 24 26 38 34 34 32 37 41 44 47 45
2 2 2 3 3 4 5 1 3 11 13 12 14 15 18 7 2 16 24 27 30 31 32 30 23 16 13 11 11 11 13 14 15 14 13 13 15 19 21 21 33 33 32 31 35 38 39 39 43
4 2 1 3 3 3 2 1 4 10 13 11 13 22 24 18 12 11 15 19 21 24 25 24 20 16 14 10 10 10 10 12 13 16 14 14 15 18 22 23 28 29 31 32 34 35 38 41 44
3 5 5 3 2 3 1 3 3 8 13 13 16 22 26 30 26 21 16 16 17 17 16 15 14 13 11 9 8 9 8 10 11 15 15 15 15 16 21 26 28 29 30 30 32 33 35 38 38
Wind_Direction
210 191 173 153 62 65 261 258 249 277 319 294 219 155 188 170 168 209 143 151 154 158 175 188 196 204 205 205 200 198 194 189 186 185 186 187 187 182 180 177 174 173 172 170 169 171 171 161 156
187 173 155 129 105 106 262 248 237 213 282 302 212 152 158 214 155 154 158 168 164 166 168 185 198 207 209 207 205 198 193 191 187 184 187 187 187 185 185 182 179 180 180 175 171 169 168 163 163
176 169 160 127 142 187 222 222 226 212 327 302 303 261 303 235 188 172 169 173 174 170 167 169 192 208 213 214 209 202 197 194 192 190 188 188 186 188 187 185 186 184 178 167 168 168 168 168 166
165 161 100 131 198 253 204 235 180 336 345 35 310 274 257 220 181 184 173 176 181 177 173 177 187 205 213 216 216 209 203 201 199 193 187 187 189 190 189 192 189 183 175 170 169 172 172 170 169
170 159 122 204 231 267 249 262 305 300 302 284 268 247 251 212 198 183 182 187 195 189 187 196 206 210 212 217 218 217 210 204 202 200 198 196 193 195 195 194 188 178 172 175 176 178 174 173 170
151 129 119 225 228 253 270 256 252 261 278 300 213 221 235 220 200 191 186 192 196 207 214 218 218 218 214 218 220 219 219 213 207 204 201 194 195 198 193 190 184 177 176 177 177 176 175 173 172
148 119 213 192 201 247 253 279 197 228 276 313 262 171 207 220 203 199 192 201 206 213 230 235 228 224 218 213 220 220 220 217 215 205 201 189 193 189 185 189 178 169 174 176 176 179 171 169 172
201 125 194 201 172 251 258 248 236 219 287 3 355 222 219 213 203 197 203 207 216 219 228 228 232 222 224 224 224 214 216 217 206 184 192 181 174 180 190 199 182 175 173 175 182 176 168 169 170
179 225 218 197 176 228 226 16 286 289 275 320 319 283 266 226 200 199 206 212 217 220 227 241 238 218 224 223 224 225 223 225 216 221 204 228 239 202 179 186 185 180 180 181 181 172 169 168 171
176 212 219 205 204 213 294 301 290 325 324 307 321 354 305 254 201 206 211 215 218 221 228 238 223 213 215 217 221 233 232 230 216 199 210 189 188 190 193 186 189 188 184 185 178 176 171 170 170
216 240 203 218 242 250 238 285 281 300 290 276 296 312 311 291 215 210 216 222 230 232 230 228 224 214 214 217 218 225 221 230 208 211 227 209 203 204 185 187 183 190 191 185 181 178 178 180 180
252 239 236 245 258 267 252 280 270 251 266 283 289 295 286 260 226 220 219 222 221 229 231 235 226 224 221 219 220 222 231 230 229 223 211 211 194 199 195 208 193 190 191 186 185 183 182 183 183
233 235 257 260 259 252 266 247 258 248 279 285 293 293 291 266 235 223 222 224 229 231 230 232 233 229 224 223 215 221 228 229 231 216 207 199 203 199 203 193 188 192 196 189 187 185 185 184 182
265 271 257 260 255 256 263 268 240 270 279 287 288 287 289 271 234 219 217 224 228 232 229 232 231 225 223 218 215 220 226 228 227 218 209 199 194 197 195 187 190 194 194 192 190 187 185 185 184
267 291 275 237 226 222 238 262 217 269 280 280 276 281 278 256 228 221 221 227 230 228 227 230 223 220 217 208 219 222 222 222 222 212 201 201 199 193 193 197 192 195 193 193 193 190 189 183 182
308 275 282 260 195 221 182 268 260 267 266 266 275 269 264 244 228 224 225 230 229 221 225 223 224 225 208 206 214 223 222 217 217 218 217 208 206 210 216 204 197 195 193 194 197 192 186 182 187
282 262 272 305 226 213 182 254 206 265 283 270 282 272 256 244 230 230 229 231 228 223 222 220 224 225 214 209 210 222 216 216 217 223 216 212 212 210 210 206 198 197 193 194 196 193 192 189 191
240 250 255 256 269 173 250 267 292 285 282 278 290 276 247 242 238 233 231 229 225 220 220 220 227 224 216 197 202 218 220 216 220 228 230 220 203 205 203 200 201 197 193 196 197 196 193 194 193
259 274 268 263 288 303 269 273 279 287 289 282 283 269 242 240 247 235 234 228 222 217 217 221 230 222 204 195 205 213 211 204 211 214 215 209 205 204 201 202 201 200 196 196 197 198 195 189 192
248 264 272 257 256 259 269 275 281 275 257 261 264 271 263 252 239 233 232 224 221 217 215 220 230 224 211 204 207 217 212 201 206 192 196 181 186 187 201 198 200 201 196 196 197 199 194 195 194
245 246 260 268 278 266 296 282 282 275 249 254 256 264 270 252 226 223 224 219 215 214 215 217 226 226 212 203 211 219 206 209 211 203 203 189 180 188 199 199 204 203 200 200 200 200 203 198 191
268 225 244 265 269 248 156 285 304 296 278 244 263 273 269 237 221 222 220 216 214 215 213 215 221 225 217 206 209 226 216 206 211 204 206 211 205 201 203 200 206 207 206 208 206 205 207 207 197
245 255 306 253 264 276 183 283 268 260 263 264 260 274 267 245 220 224 224 222 215 213 211 211 215 223 225 209 211 219 221 223 218 224 217 221 222 221 219 212 204 209 209 209 209 207 205 208 213
274 334 282 291 239 257 200 210 256 222 223 256 250 277 283 253 228 234 226 216 214 213 209 209 212 220 228 218 213 215 220 223 228 230 236 242 234 229 225 223 209 206 211 208 212 210 209 208 219
117 268 262 238 212 247 213 196 242 265 319 314 313 297 282 270 258 233 225 213 213 213 206 209 210 218 224 223 220 220 220 225 235 240 243 243 242 231 233 226 219 215 215 209 211 213 210 220 222
178 205 216 261 230 288 220 224 244 24 342 335 334 333 316 274 242 224 223 217 213 211 207 208 211 213 217 224 227 225 227 229 232 228 230 233 232 231 232 225 221 224 222 220 216 218 218 215 227
194 209 142 308 214 303 240 268 166 10 6 3 355 346 346 299 243 224 220 215 210 207 206 206 208 211 215 221 225 231 228 229 227 228 230 237 227 225 228 230 225 226 226 226 220 220 223 226 229
149 13 165 171 259 222 233 237 26 5 356 1 2 350 358 48 164 193 205 204 202 199 199 203 207 213 217 221 222 224 225 235 241 238 234 232 225 227 237 236 222 228 230 230 227 226 229 231 232
165 199 210 285 231 308 304 122 72 30 24 16 14 18 30 67 104 149 169 171 175 184 192 198 200 210 215 222 220 226 230 236 239 244 248 247 236 220 229 226 226 229 231 233 240 227 233 234 239
145 155 163 248 206 190 221 292 19 55 36 30 30 36 41 56 76 103 135 154 163 173 182 194 200 212 225 235 230 232 232 236 247 241 244 249 246 235 230 231 228 230 233 235 241 242 242 241 242